Weather History for Richlands, VA

Change the Weather History Date:

Tuesday, May 21, 2013

  Actual Average (KBLF) Record (KBLF)
Temperature  
Mean Temperature 70 °F 64 °F  
Max Temperature 79 °F 73 °F 85 °F (2013)
Min Temperature 60 °F 54 °F 33 °F (2002)
Degree Days  
Heating Degree Days 0 4  
Month to date heating degree days 108  
Since 1 July heating degree days 4538  
Cooling Degree Days 4 2  
Month to date cooling degree days 33  
Year to date cooling degree days 61  
Growing Degree Days 20 (Base 50)    
Moisture  
Dew Point 62 °F    
Average Humidity 78    
Maximum Humidity 99    
Minimum Humidity 52    
Precipitation  
Precipitation 0.00 in 0.14 in 1.82 in (1970)
Month to date precipitation 2.82  
Year to date precipitation 15.33  
Snow  
Snow 0.00 in - - ()
Month to date snowfall  
Since 1 July snowfall  
Snow Depth -    
Sea Level Pressure  
Sea Level Pressure 30.08 in    
Wind  
Wind Speed 3 mph (SW)    
Max Wind Speed 15 mph    
Max Gust Speed 31 mph    
Visibility 9 miles    
Events Fog , Thunderstorm    
T = Trace of Precipitation, MM = Missing Value Source: NWS Daily Summary

Daily Weather History Graph

Daily Weather History Graph

Search for Another Location

Airport:

Trip Planner

Search our weather history database for the weather conditions in past years. The results will help you decide how hot, cold, wet, or windy it might be!

Date:

Astronomy

May. 21, 2013 Rise Set
Actual Time 6:14 AM EDT 8:33 PM EDT
Civil Twilight 5:44 AM EDT 9:03 PM EDT
Nautical Twilight 5:08 AM EDT 9:39 PM EDT
Astronomical Twilight 4:28 AM EDT 10:19 PM EDT
Moon 4:50 PM EDT (5/21) 3:36 AM EDT (5/21)
Length of Visible Light 15h 18m
Length of Day
14h 19m
Waxing Gibbous, 84% of the Moon is Illuminated
May 21
Waxing Gibbous
May 25
Full
May 31
Last Quarter
Jun 8
New
Jun 16
First Quarter

Hourly Weather History & Observations

Time (EDT) Temp. Dew Point Humidity Pressure Visibility Wind Dir Wind Speed Gust Speed Precip Events Conditions
12:15 AM 67.1 °F 59.5 °F 77% 30.08 in 10.0 mi South 3.5 mph - N/A   Clear
12:35 AM 65.7 °F 60.3 °F 83% 30.07 in 10.0 mi Calm Calm - N/A   Clear
12:55 AM 63.0 °F 61.9 °F 96% 30.07 in 7.0 mi Calm Calm - N/A   Clear
1:15 AM 61.7 °F 61.0 °F 97% 30.07 in 7.0 mi Calm Calm - N/A   Clear
1:35 AM 62.2 °F 60.6 °F 94% 30.07 in 10.0 mi Calm Calm - N/A   Clear
1:55 AM 61.9 °F 61.5 °F 99% 30.07 in 4.0 mi Calm Calm - N/A   Clear
2:15 AM 62.8 °F 62.4 °F 99% 30.07 in 7.0 mi Calm Calm - N/A   Clear
2:35 AM 63.5 °F 60.3 °F 89% 30.07 in 10.0 mi Calm Calm - N/A   Clear
2:55 AM 61.0 °F 60.4 °F 98% 30.08 in 7.0 mi Calm Calm - N/A   Clear
3:35 AM 61.2 °F 60.6 °F 98% 30.08 in 7.0 mi Calm Calm - N/A   Clear
3:55 AM 61.2 °F 60.3 °F 97% 30.08 in 7.0 mi Calm Calm - N/A   Clear
4:15 AM 60.3 °F 59.5 °F 97% 30.08 in 7.0 mi SW 3.5 mph - N/A   Clear
4:35 AM 60.6 °F 59.2 °F 95% 30.08 in 10.0 mi SSW 3.5 mph - N/A   Clear
4:55 AM 61.3 °F 59.9 °F 95% 30.08 in 10.0 mi Calm Calm - N/A   Clear
5:15 AM 60.3 °F 59.7 °F 98% 30.08 in 7.0 mi Calm Calm - N/A   Clear
5:35 AM 60.3 °F 59.4 °F 97% 30.08 in 7.0 mi Calm Calm - N/A   Clear
5:55 AM 60.8 °F 59.9 °F 97% 30.08 in 7.0 mi Calm Calm - N/A   Clear
6:15 AM 61.2 °F 59.7 °F 95% 30.10 in 7.0 mi Calm Calm - N/A   Mostly Cloudy
6:35 AM 63.0 °F 60.4 °F 91% 30.10 in 10.0 mi Calm Calm - N/A   Overcast
6:55 AM 61.0 °F 60.1 °F 97% 30.09 in 4.0 mi Calm Calm - N/A   Scattered Clouds
7:15 AM 62.4 °F 61.0 °F 95% 30.09 in 7.0 mi SSE 3.5 mph - N/A   Clear
7:35 AM 64.8 °F 61.7 °F 90% 30.09 in 10.0 mi Calm Calm - N/A   Clear
7:55 AM 61.5 °F 61.0 °F 98% 30.11 in 0.5 mi Calm Calm - N/A Fog Fog
8:15 AM 66.2 °F 62.4 °F 88% 30.12 in 10.0 mi SW 3.5 mph - N/A   Mostly Cloudy
8:35 AM 66.2 °F 62.8 °F 89% 30.12 in 10.0 mi SW 3.5 mph - N/A   Overcast
8:55 AM 67.1 °F 63.9 °F 89% 30.13 in 10.0 mi SW 6.9 mph - N/A   Mostly Cloudy
9:15 AM 68.0 °F 64.6 °F 89% 30.13 in 10.0 mi WSW 5.8 mph - N/A   Clear
9:35 AM 68.4 °F 64.9 °F 89% 30.13 in 10.0 mi SW 6.9 mph - N/A   Scattered Clouds
9:55 AM 69.3 °F 65.3 °F 87% 30.13 in 10.0 mi West 6.9 mph - N/A   Mostly Cloudy
10:15 AM 69.3 °F 65.1 °F 87% 30.15 in 10.0 mi West 6.9 mph - N/A   Mostly Cloudy
10:35 AM 68.7 °F 65.1 °F 88% 30.15 in 10.0 mi WSW 5.8 mph - N/A   Mostly Cloudy
10:55 AM 70.3 °F 64.9 °F 83% 30.13 in 10.0 mi West 6.9 mph - N/A   Mostly Cloudy
11:15 AM 71.4 °F 63.5 °F 76% 30.13 in 10.0 mi West 5.8 mph - N/A   Mostly Cloudy
11:35 AM 71.6 °F 64.0 °F 77% 30.13 in 10.0 mi WSW 6.9 mph - N/A   Overcast
11:55 AM 72.7 °F 64.8 °F 76% 30.13 in 10.0 mi WSW 5.8 mph - N/A   Overcast
12:15 PM 73.0 °F 64.2 °F 74% 30.13 in 10.0 mi WNW 4.6 mph - N/A   Mostly Cloudy
12:35 PM 73.2 °F 64.4 °F 74% 30.12 in 10.0 mi SW 3.5 mph - N/A   Mostly Cloudy
12:55 PM 73.6 °F 63.5 °F 71% 30.12 in 10.0 mi WNW 3.5 mph - N/A   Scattered Clouds
1:15 PM 75.4 °F 64.2 °F 68% 30.11 in 10.0 mi SSW 4.6 mph - N/A   Mostly Cloudy
1:35 PM 76.1 °F 64.9 °F 68% 30.11 in 10.0 mi SSW 4.6 mph - N/A   Mostly Cloudy
1:55 PM 75.6 °F 63.0 °F 65% 30.08 in 10.0 mi South 5.8 mph - N/A   Clear
2:15 PM 77.2 °F 64.2 °F 64% 30.07 in 10.0 mi SSE 3.5 mph - N/A   Clear
2:35 PM 76.8 °F 61.9 °F 60% 30.07 in 10.0 mi SSW 3.5 mph - N/A   Clear
2:55 PM 77.4 °F 64.0 °F 63% 30.07 in 10.0 mi SSW 3.5 mph - N/A   Scattered Clouds
3:15 PM 78.1 °F 63.0 °F 60% 30.06 in 10.0 mi West 4.6 mph - N/A   Scattered Clouds
3:35 PM 79.0 °F 60.3 °F 53% 30.05 in 10.0 mi Calm Calm - N/A   Clear
3:55 PM 79.0 °F 60.3 °F 53% 30.05 in 10.0 mi SW 3.5 mph - N/A   Clear
4:15 PM 79.5 °F 60.6 °F 52% 30.04 in 7.0 mi South 3.5 mph - N/A   Scattered Clouds
4:35 PM 78.6 °F 61.5 °F 56% 30.03 in 10.0 mi South 4.6 mph - N/A   Mostly Cloudy
4:55 PM 79.7 °F 63.0 °F 56% 30.02 in 10.0 mi SW 3.5 mph - N/A   Scattered Clouds
5:15 PM 79.9 °F 63.5 °F 57% 30.01 in 10.0 mi South 3.5 mph - N/A   Clear
5:35 PM 79.2 °F 64.4 °F 60% 30.00 in 10.0 mi SE 8.1 mph - N/A   Clear
5:55 PM 78.8 °F 64.0 °F 60% 30.01 in 10.0 mi SSE 5.8 mph - N/A   Mostly Cloudy
6:15 PM 78.6 °F 63.1 °F 59% 30.01 in 10.0 mi South 5.8 mph - N/A   Overcast
6:35 PM 77.5 °F 63.3 °F 61% 30.01 in 10.0 mi SW 6.9 mph - N/A   Mostly Cloudy
6:55 PM 78.3 °F 62.4 °F 58% 30.01 in 10.0 mi SW 6.9 mph - N/A   Scattered Clouds
7:15 PM 77.9 °F 62.4 °F 59% 30.01 in 10.0 mi SW 4.6 mph - N/A   Clear
7:35 PM 76.8 °F 60.6 °F 57% 30.01 in 10.0 mi SW 4.6 mph - N/A   Clear
7:55 PM 75.6 °F 60.8 °F 60% 30.01 in 10.0 mi WSW 4.6 mph - N/A   Clear
8:15 PM 74.5 °F 62.1 °F 65% 30.02 in 10.0 mi West 8.1 mph - N/A   Clear
8:35 PM 73.9 °F 62.1 °F 66% 30.03 in 10.0 mi West 6.9 mph - N/A   Clear
8:55 PM 69.3 °F 57.4 °F 66% 30.05 in 10.0 mi NW 15.0 mph 31.1 mph N/A   Mostly Cloudy
9:15 PM 67.5 °F 57.2 °F 70% 30.06 in 10.0 mi NW 5.8 mph - N/A   Scattered Clouds
9:35 PM 66.4 °F 57.2 °F 72% 30.05 in 10.0 mi NNE 3.5 mph - N/A   Scattered Clouds
9:55 PM 65.7 °F 57.2 °F 74% 30.05 in 10.0 mi Calm Calm - N/A Thunderstorm Clear
10:15 PM 63.9 °F 57.6 °F 80% 30.06 in 10.0 mi SSE 5.8 mph - N/A   Clear
10:35 PM 63.5 °F 57.6 °F 81% 30.08 in 10.0 mi SE 8.1 mph - N/A   Clear
10:55 PM 65.7 °F 58.5 °F 78% 30.09 in 10.0 mi SW 9.2 mph - N/A   Clear
11:15 PM 64.8 °F 58.6 °F 81% 30.08 in 10.0 mi South 3.5 mph - N/A   Clear
11:35 PM 64.6 °F 58.5 °F 80% 30.07 in 10.0 mi Calm Calm - N/A   Clear
11:55 PM 66.6 °F 56.3 °F 69% 30.06 in 10.0 mi South 4.6 mph - N/A   Clear